[[{"header":{"parameterUnit":"m.s-1","parameterCategory":1,"la1":30.2991,"la2":30.254,"lo1":-89.0895,"lo2":-89.0444,"dy":0.0017,"dx":0.0017,"nx":28,"ny":28,"refTime":"2024-12-25T09:00:00:Z","depth":0,"parameterNumber":2,"parameterNumberName":"U-component_of_WINDS"},"data":[0,0,0,0,0,0,0,0,0,0,0,0,0,0,0,0,0,0,0,0,0,0,0,0,0,0,0,0,0,0,0,0,0,0,0,0,0,0,0,0,0,0,0,0,0,0,0,0,0,0,0,0,0,0,0,0,0,0,-5.5551,-5.5553,0,-5.5696,-5.5698,-5.57,-5.5704,-5.5702,-5.5701,-5.5699,-5.5849,-5.5854,-5.586,0,0,0,0,0,0,0,0,0,0,0,0,0,-5.5281,-5.5285,-5.5551,-5.5553,-5.5555,-5.5696,-5.5698,-5.57,-5.5704,-5.5702,-5.57,-5.5698,-5.5847,-5.5853,-5.586,0,0,0,0,0,0,0,0,0,0,0,0,0,-5.5409,-5.5287,-5.5551,-5.5574,-5.5578,-5.5696,-5.5698,-5.5701,-5.5705,-5.5702,-5.57,-5.5697,-5.5845,-5.5853,-5.5861,-5.5967,0,0,-5.5887,-5.5891,0,0,0,0,0,0,0,0,-5.5402,-5.5419,-5.5569,-5.5573,-5.5577,-5.5679,-5.5658,-5.579,-5.5706,-5.5657,-5.5699,-5.5696,-5.5795,-5.5807,-5.584,-5.5974,-5.598,-5.5888,-5.5893,-5.5897,-5.5899,0,0,0,0,0,0,0,-5.5393,-5.5413,-5.5609,-5.5571,-5.5576,-5.5578,-5.5593,-5.5683,-5.5739,-5.5661,-5.5661,-5.5678,-5.5796,-5.5832,-5.5844,-5.5982,-5.5888,-5.5895,-5.59,-5.5904,-5.6211,-5.6214,0,0,0,0,0,0,-5.5379,-5.5405,-5.5604,-5.5613,-5.5481,-5.5585,-5.5602,-5.5649,-5.5738,-5.5749,-5.568,-5.5678,-5.5819,-5.5834,-5.5849,-5.5978,-5.5896,-5.5904,-5.5909,-5.6208,-5.6212,-5.6215,0,0,0,0,0,0,-5.5373,-5.5397,-5.5598,-5.551,-5.5535,-5.5593,-5.5645,-5.5653,-5.5689,-5.5753,-5.5763,-5.5706,-5.5817,-5.5837,-5.5937,-5.5983,-5.5908,-5.5916,-5.6204,-5.6209,-5.6213,-5.6237,0,0,0,0,0,0,-5.5366,-5.5395,-5.5434,-5.551,-5.554,-5.5683,-5.5648,-5.5658,-5.5703,-5.5702,-5.578,-5.579,-5.5817,-5.5925,-5.5946,-5.5994,-5.5922,-5.62,-5.6207,-5.6212,-5.6232,-5.6242,-5.625,0,0,0,0,0,-5.5356,-5.5435,-5.5436,-5.546,-5.5591,-5.5686,-5.5703,-5.5731,-5.5707,-5.5748,-5.5789,-5.5788,-5.5976,-5.5935,-5.5959,-5.601,-5.6198,-5.6205,-5.6212,-5.6228,-5.624,-5.625,0,0,0,0,0,0,-5.5362,-5.5445,-5.5447,-5.5554,-5.5613,-5.5686,-5.5738,-5.5743,-5.581,-5.5806,-5.5839,-5.5857,-5.5957,-5.5994,-5.5947,-5.6117,-5.6084,-5.6096,-5.6089,-5.61,-5.6109,-5.6097,-5.593,0,0,0,0,0,-5.5376,-5.5446,-5.5515,-5.5602,-5.5632,-5.568,-5.5723,-5.574,-5.5803,-5.5828,-5.5876,-5.5938,-5.6011,-5.6058,-5.6129,-5.6239,-5.6256,-5.6286,-5.6295,-5.6302,-5.6311,-5.6373,-5.6387,-5.6238,-5.6238,-5.6238,0,0,-5.5405,-5.546,-5.5501,-5.5605,-5.5653,-5.5725,-5.5701,-5.5778,-5.5832,-5.584,-5.5937,-5.5976,-5.6047,-5.6152,-5.6202,-5.6186,-5.6357,-5.6311,-5.6316,-5.6322,-5.6382,-5.6396,-5.6408,-5.6243,-5.6242,-5.6241,0,0,-5.5495,-5.5543,-5.5621,-5.567,-5.5743,-5.5775,-5.5794,-5.5868,-5.5894,-5.5992,-5.6,-5.6066,-5.6191,-5.6241,-5.6283,-5.6395,-5.6396,-5.6418,-5.6463,-5.6523,-5.6535,-5.6545,-5.6585,-5.6598,-5.6428,-5.6428,-5.6428,0,-5.5521,-5.563,-5.566,-5.5738,-5.5784,-5.5795,-5.5875,-5.5921,-5.6013,-5.6045,-5.6028,-5.6186,-5.6234,-5.6352,-5.638,-5.6414,-5.6437,-5.6407,-5.653,-5.6541,-5.6552,-5.659,-5.6604,-5.643,-5.6429,-5.6429,-5.6429,0,-5.5659,-5.5734,-5.5789,-5.5878,-5.593,-5.6009,-5.6052,-5.6102,-5.6116,-5.615,-5.6252,-5.6311,-5.6394,-5.6425,-5.6439,-5.6546,-5.6534,-5.6523,-5.649,-5.6567,-5.6603,-5.6618,-5.6432,-5.6432,-5.6431,-5.6431,0,0,-5.5752,-5.586,-5.5879,-5.592,-5.6003,-5.6063,-5.6143,-5.6224,-5.6266,-5.6331,-5.6399,-5.6506,-5.6497,-5.6545,-5.6566,-5.6619,-5.6704,-5.6602,-5.6604,-5.6618,-5.6825,-5.6831,-5.6847,-5.6707,-5.671,-5.6712,-5.6819,0,-5.585,-5.599,-5.6022,-5.6144,-5.6214,-5.6228,-5.6298,-5.6357,-5.6393,-5.6458,-5.6498,-5.6573,-5.6556,-5.6585,-5.6639,-5.6682,-5.6746,-5.6675,-5.677,-5.6773,-5.6749,-5.6866,-5.6872,-5.697,-5.6833,-5.6836,-5.6838,0,-5.5981,-5.6048,-5.6177,-5.6252,-5.6283,-5.6345,-5.6423,-5.6486,-5.6555,-5.6577,-5.6632,-5.6648,-5.6733,-5.6698,-5.6816,-5.6768,-5.6809,-5.6837,-5.6842,-5.6849,-5.6808,-5.6876,-5.7002,-5.7016,-5.686,-5.6859,-5.6857,0,-5.6034,-5.6158,-5.6252,-5.6287,-5.6377,-5.6421,-5.6461,-5.6526,-5.6574,-5.6644,-5.6675,-5.6754,-5.6796,-5.6857,-5.6895,-5.6866,-5.701,-5.6978,-5.7031,-5.703,-5.7057,-5.7055,-5.719,-5.7088,-5.7088,-5.7088,-5.7087,0,-5.6138,-5.6216,-5.6277,-5.6334,-5.6422,-5.6459,-5.6546,-5.6586,-5.6646,-5.6711,-5.673,-5.6791,-5.6838,-5.6907,-5.6937,-5.703,-5.705,-5.707,-5.7077,-5.7067,-5.7064,-5.7093,-5.7086,-5.7092,-5.7091,-5.709,-5.7089,0,-5.6211,-5.6255,-5.6358,-5.6436,-5.6458,-5.6519,-5.6587,-5.6643,-5.6681,-5.6764,-5.6786,-5.6845,-5.6927,-5.6971,-5.7074,-5.7095,-5.7199,-5.7203,-5.7175,-5.7177,-5.7227,-5.7221,-5.7383,-5.7406,-5.7291,-5.7292,-5.7293,0,-5.6273,-5.6333,-5.6418,-5.6464,-5.6504,-5.6577,-5.6626,-5.6667,-5.6717,-5.6802,-5.6848,-5.6932,-5.7,-5.7131,-5.7183,-5.7263,-5.7267,-5.7319,-5.7279,-5.7268,-5.7266,-5.7261,-5.7267,-5.7325,-5.7326,-5.7327,-5.7328,0,-5.6377,-5.6397,-5.6466,-5.6545,-5.6603,-5.6667,-5.673,-5.6766,-5.6817,-5.6874,-5.6958,-5.7011,-5.7117,-5.7199,-5.7283,-5.7326,-5.7335,-5.7341,-5.7357,-5.7346,-5.7326,-5.7336,-5.7191,-5.7336,-5.7335,-5.7334,-5.7334,-5.7333,-5.6445,-5.65,-5.6569,-5.6646,-5.6699,-5.6758,-5.6815,-5.686,-5.6931,-5.702,-5.704,-5.7129,-5.7199,-5.7313,-5.7358,-5.7429,-5.7419,-5.7442,-5.7448,-5.7452,-5.7454,-5.7318,-5.7445,-5.7444,-5.7444,-5.7444,-5.7444,0,-5.6549,-5.6595,-5.6666,-5.6754,-5.6816,-5.6821,-5.6892,-5.6943,-5.7021,-5.7085,-5.7153,-5.725,-5.7331,-5.7392,-5.7475,-5.752,-5.7526,-5.754,-5.7536,-5.7545,-5.7459,-5.7435,-5.7533,-5.7533,-5.7533,-5.7533,-5.7533,-5.7533,-5.661,-5.6703,-5.6731,-5.685,-5.6896,-5.6983,-5.7023,-5.7078,-5.713,-5.7238,-5.7305,-5.7344,-5.7407,-5.7495,-5.7571,-5.7586,-5.7615,-5.7628,-5.7644,-5.7561,-5.7551,-5.7542,-5.7521,-5.7635,-5.7635,-5.7725,-5.7726,-5.7726]},{"header":{"parameterUnit":"m.s-1","parameterCategory":1,"la1":30.2991,"la2":30.254,"lo1":-89.0895,"lo2":-89.0444,"dy":0.0017,"dx":0.0017,"nx":28,"ny":28,"refTime":"2024-12-25T09:00:00:Z","depth":0,"parameterNumber":3,"parameterNumberName":"V-component_of_WINDS"},"data":[0,0,0,0,0,0,0,0,0,0,0,0,0,0,0,0,0,0,0,0,0,0,0,0,0,0,0,0,0,0,0,0,0,0,0,0,0,0,0,0,0,0,0,0,0,0,0,0,0,0,0,0,0,0,0,0,0,0,1.9876,1.9876,0,1.9901,1.9901,1.9901,1.9909,1.9909,1.9909,1.9908,1.9931,1.9932,1.9933,0,0,0,0,0,0,0,0,0,0,0,0,0,1.9836,1.9836,1.9876,1.9876,1.9877,1.9901,1.9901,1.9902,1.9909,1.9909,1.9909,1.9908,1.9931,1.9932,1.9933,0,0,0,0,0,0,0,0,0,0,0,0,0,1.9856,1.9836,1.9876,1.9883,1.9884,1.9901,1.9901,1.9902,1.9909,1.9909,1.9909,1.9908,1.9931,1.9932,1.9933,1.9943,0,0,1.9936,1.9937,0,0,0,0,0,0,0,0,1.9855,1.9857,1.9882,1.9883,1.9884,1.9902,1.9895,1.9915,1.9909,1.9899,1.9908,1.9908,1.9921,1.9923,1.9928,1.9944,1.9945,1.9936,1.9937,1.9937,1.9938,0,0,0,0,0,0,0,1.9853,1.9856,1.9886,1.9882,1.9884,1.9886,1.9888,1.9899,1.9911,1.99,1.9901,1.9904,1.9922,1.9927,1.9929,1.9946,1.9936,1.9937,1.9938,1.9938,1.9975,1.9975,0,0,0,0,0,0,1.9851,1.9855,1.9885,1.9887,1.9869,1.9886,1.9889,1.9896,1.9911,1.9913,1.9904,1.9904,1.9925,1.9928,1.993,1.9945,1.9937,1.9938,1.9939,1.9975,1.9975,1.9975,0,0,0,0,0,0,1.985,1.9853,1.9884,1.9871,1.9875,1.9887,1.9895,1.9897,1.9902,1.9914,1.9916,1.9907,1.9925,1.9928,1.9941,1.9946,1.9939,1.994,1.9974,1.9975,1.9975,1.9974,0,0,0,0,0,0,1.9849,1.9853,1.9857,1.9871,1.9876,1.9895,1.9895,1.9897,1.9904,1.9904,1.9917,1.9919,1.9925,1.9939,1.9942,1.9947,1.9941,1.9974,1.9974,1.9975,1.9974,1.9975,1.9975,0,0,0,0,0,1.9847,1.9854,1.9857,1.986,1.9881,1.9895,1.9898,1.9905,1.9904,1.9909,1.9917,1.9919,1.9945,1.994,1.9943,1.9949,1.9973,1.9974,1.9975,1.9974,1.9975,1.9975,0,0,0,0,0,0,1.9838,1.9856,1.9859,1.9871,1.9882,1.9896,1.9901,1.9905,1.9916,1.9915,1.9924,1.9927,1.9939,1.9945,1.994,1.9962,1.9959,1.9961,1.9957,1.9958,1.9959,1.9957,1.9942,0,0,0,0,0,1.9838,1.9848,1.9863,1.9872,1.9877,1.9889,1.9895,1.99,1.9911,1.9915,1.9924,1.9934,1.9945,1.9952,1.9962,1.9975,1.9979,1.9981,1.9982,1.9982,1.9983,1.9993,1.9995,1.9978,1.9978,1.9978,0,0,1.9836,1.9848,1.9853,1.9871,1.9879,1.989,1.9892,1.9903,1.9911,1.9917,1.993,1.9937,1.9949,1.9963,1.9969,1.9968,1.9989,1.9983,1.9983,1.9984,1.9994,1.9996,1.9997,1.9978,1.9978,1.9978,0,0,1.984,1.9849,1.9859,1.9869,1.9883,1.9891,1.9894,1.9908,1.9914,1.9928,1.9933,1.9943,1.9961,1.997,1.9977,1.9989,1.9992,1.9992,1.9996,2.0006,2.0007,2.0008,2.0014,2.0016,1.9993,1.9993,1.9993,0,1.9836,1.9853,1.9863,1.9875,1.9883,1.9891,1.9902,1.9911,1.9927,1.9933,1.9932,1.9957,1.9965,1.9983,1.9986,1.9991,1.9995,1.999,2.0006,2.0008,2.0009,2.0015,2.0017,1.9993,1.9993,1.9993,1.9993,0,1.9849,1.9861,1.9868,1.9886,1.9895,1.9906,1.9918,1.9926,1.9932,1.9941,1.9956,1.9967,1.9981,1.9986,1.999,2.0005,2.0004,2.0004,2.0002,2.001,2.0016,2.0019,1.9993,1.9993,1.9993,1.9993,0,0,1.9845,1.9872,1.9874,1.9884,1.9902,1.9912,1.9924,1.994,1.9948,1.9959,1.9971,1.9988,1.999,1.9998,2.0003,2.0012,2.0024,2.0012,2.0012,2.0015,2.0043,2.0044,2.0046,2.0026,2.0026,2.0027,2.0043,0,1.9853,1.9876,1.9887,1.9906,1.9918,1.9928,1.9939,1.9952,1.9961,1.9973,1.9983,1.9995,1.9996,2.0001,2.001,2.002,2.003,2.0019,2.0038,2.0038,2.0035,2.0049,2.0049,2.0063,2.0045,2.0046,2.0046,0,1.9863,1.9878,1.9898,1.9919,1.9924,1.9934,1.9951,1.9962,1.9978,1.9984,1.9995,2.0002,2.0017,2.0014,2.0035,2.0028,2.0036,2.0043,2.0044,2.0046,2.0043,2.0053,2.0068,2.0071,2.0049,2.0049,2.0049,0,1.9861,1.9885,1.9902,1.991,1.9933,1.994,1.995,1.9966,1.9975,1.999,1.9997,2.0013,2.0022,2.0034,2.0045,2.0042,2.0066,2.0064,2.0073,2.0073,2.0077,2.0077,2.0095,2.0081,2.0081,2.0081,2.0081,0,1.9868,1.988,1.9902,1.9912,1.9927,1.994,1.9955,1.9966,1.998,1.9993,2.0002,2.0014,2.0027,2.0041,2.005,2.0068,2.0071,2.0077,2.008,2.0077,2.0077,2.0083,2.0083,2.0082,2.0081,2.0081,2.0081,0,1.9867,1.9881,1.99,1.9922,1.9928,1.9939,1.9958,1.9969,1.998,1.9996,2.0001,2.0018,2.0035,2.0048,2.0069,2.0075,2.0095,2.0096,2.009,2.0092,2.0101,2.0101,2.0124,2.0129,2.0111,2.0111,2.0111,0,1.9871,1.9881,1.9905,1.9916,1.9926,1.9942,1.9953,1.9967,1.9979,2.0,2.0008,2.0027,2.0043,2.007,2.0084,2.0102,2.0105,2.0112,2.0107,2.0106,2.0107,2.0107,2.0109,2.0113,2.0113,2.0113,2.0113,0,1.9876,1.9884,1.99,1.992,1.9934,1.995,1.9966,1.9974,1.9991,2.0003,2.0023,2.0035,2.0059,2.0078,2.0098,2.0108,2.0114,2.0115,2.0118,2.0116,2.0113,2.0117,2.0094,2.0114,2.0114,2.0114,2.0114,2.0114,1.9879,1.989,1.991,1.9929,1.9943,1.9959,1.9972,1.9986,2.0002,2.0024,2.0032,2.0052,2.007,2.0098,2.0109,2.0126,2.0125,2.013,2.0131,2.0132,2.0133,2.011,2.0129,2.0129,2.0129,2.0129,2.0129,0,1.9887,1.9901,1.9919,1.9943,1.9958,1.9964,1.9983,1.9996,2.0014,2.0031,2.0048,2.0071,2.0091,2.0108,2.0128,2.0139,2.0142,2.0144,2.0143,2.0146,2.0131,2.0127,2.0141,2.0141,2.0141,2.0141,2.0141,2.0141,1.9893,1.9913,1.9924,1.9953,1.9967,1.9988,1.9999,2.0014,2.0029,2.0055,2.0072,2.0084,2.0102,2.0125,2.0143,2.0148,2.0156,2.0157,2.0162,2.0148,2.0147,2.0145,2.0142,2.0158,2.0158,2.0176,2.0177,2.0177]}]]